Regional Weather Roundup
Issued by NWS

Home | Current Version | Previous Version | Graphics & Text | Print | Product List | Glossary On
Versions: 1 2 3 4 5 6 7 8 9 10 11 12 13 14 15 16 17 18 19 20 21 22 23 24 25 26 27 28 29 30 31 32 33 34 35 36 37 38 39 40 41 42 43 44 45 46 47 48 49 50
000
ASUS43 KFSD 181210
RWRSD

WEATHER ROUNDUP FOR SOUTH DAKOTA
NATIONAL WEATHER SERVICE SIOUX FALLS SD
700 AM CDT THU SEP 18 2014

NOTE: "FAIR" INDICATES FEW OR NO CLOUDS BELOW 12,000 FEET WITH NO
SIGNIFICANT WEATHER AND/OR OBSTRUCTIONS TO VISIBILITY.


SDZ001>005-009-010-012>017-181300-
NORTHWEST AND NORTH CENTRAL SOUTH DAKOTA

CITY           SKY/WX    TMP DP  RH WIND       PRES   REMARKS
BUFFALO          N/A     53  50  89 SE9       29.80S
FAITH            N/A     53  48  83 SE9       29.87F
MOBRIDGE       CLEAR     51  50  96 E8        29.89F
$$

SDZ012>016-024>037-041>051-057-063-072>074-181300-
SOUTHWEST AND SOUTH CENTRAL SOUTH DAKOTA

CITY           SKY/WX    TMP DP  RH WIND       PRES   REMARKS
RAPID CTY ARPT CLEAR     49  48  97 S3        29.87F FOG
PIERRE         TSTM      56  53  90 SE13      29.88F
CUSTER         CLEAR     51  43  74 NW3       30.00F
ELLSWORTH AFB  CLEAR     54  52  90 SW2       29.86F
PHILIP         CLEAR     52  49  89 E8        29.86F
PINE RIDGE     CLOUDY    62  60  93 SW7       29.91S
WINNER         FAIR      58  56  93 E6        29.93R
$$

SDZ004>011-016>023-039-040-181300-
NORTHEAST SOUTH DAKOTA

CITY           SKY/WX    TMP DP  RH WIND       PRES   REMARKS
ABERDEEN       CLEAR     43  43 100 CALM      29.96S
WATERTOWN      CLEAR     54  50  86 SE7       29.98S
SISSETON         N/A     45  45 100 S5        29.99R
$$

SDZ017-020-022-023-036>040-048>070-181300-
SOUTHEAST SOUTH DAKOTA

CITY           SKY/WX    TMP DP  RH WIND       PRES   REMARKS
SIOUX FALLS    PTCLDY    57  54  89 SE7       29.99R
HURON          CLEAR     52  50  93 SE3       29.94F
CHAMBERLAIN    MOCLDY    55  54  94 SE6       29.93S
MITCHELL       PTCLDY    50  50 100 E5        29.95S FOG
YANKTON        CLEAR     55  54  94 SE5       29.98R
$$

ABBREVIATIONS USED IN REMARKS
   TC - TEMPERATURE IN CELSIUS
  WCI - WIND CHILL INDEX
   HX - HEAT INDEX
  VSB - VISIBILITY




USA.gov is the U.S. government's official web portal to all federal, state and local government web resources and services.